sat.trackr.live / text

‹ back to catalog

STARLINK-33959

NORAD 63817 · 2025-092P

PAYLOAD ACTIVE UNKNOWN

§ Identity

Operator
Country
US
Launch date
2025-05-04
Launch site
AFETR
Launch vehicle
Mass (kg)
RCS (m²)

Purposes: comms

External: N2YO · Heavens-Above · Gunter

§ Orbital elements

Epoch: 2026-05-25T03:40:16.781664Z

Period
94.27 min
Inclination
42.9993°
Eccentricity
0.0001151
Mean motion
15.27594831 rev/d
Perigee alt
482.2 km
Apogee alt
483.8 km
Semi-major
6,861.1 km
B*
5.9577e-4
RAAN
100.2941°
Arg perigee
266.5734°
Mean anomaly
93.4986°
Rev number
6,036

§ Raw data

STARLINK-339591 63817U 25092P   26145.15297201  .00016175  00000+0  59577-3 0  99932 63817  42.9993 100.2941 0001151 266.5734  93.4986 15.27594831 60360

JSON: /api/v1/satellites/63817 · /tle

For live sub-satellite position, see the globe view (requires WebGL).

§ Visibility from observer

Set your observer location to see the next 7 days of passes ≥ 10°. The values pass through the URL so the page stays shareable.

No JS? Fill the form by hand. The geolocation button needs JavaScript.